User: anonymous   Login
Location: Prairie State College
(41.5244°N, 87.6382°W)
Time: 23:15:06
(UTC-05:00)
Language:

Cosmos 1943 - Orbit

View from above orbital plane
View from above orbital plane
View from above satellite
View from above satellite

Ground track
Ground track

The orbit data is extracted from the following two-line orbital elements,

1 19119U 88039A   17296.26780351 +.00000150 +00000-0 +10171-3 0  9995
2 19119 071.0042 192.8092 0013180 230.5789 265.5522 14.15104014519941
Epoch (UTC): 23 October 2017 06:25:38
Eccentricity: 0.0013180
inclination: 71.0042°
perigee height: 832 km
apogee height: 851 km
right ascension of ascending node: 192.8092°
argument of perigee: 230.5789°
revolutions per day: 14.15104014
mean anomaly at epoch: 265.5522°
orbit number at epoch: 51994

The dashed part of the orbit path shows where the satellite is in the earth's shadow,  

DLR